Location: Davayat
(45.9471°N, 3.1105°E)
Time: 16:59:31
(UTC+00:00)

USA 267 - Pass Details

Date: 01 December 2020
Orbit: 1100 x 1107 km, 123.0° (Epoch: 06 January)

Event Time Altitude Azimuth Distance (km) Brightness Sun altitude
Exits shadow 19:21:29 72° 312° (NW) 1,156 3.3 -33.6°
Drops below altitude 10° 19:27:16 10° 308° (NW) 2,964 6.1 -34.6°
Sets 19:29:45 0° 309° (NW) 3,924 6.9 -35.0°
